FENGYUN 1C DEB, 30766

Orbit data source: Space-Track

FENGYUN 1C DEB, 30766 is space debris in SSO originally from a launch on Mon, 10 May 1999 UTC launched from the Taiyaun Space Center, China (TSC). Fengyun 1C debris stems from the Chinese weather satellite Fengyun-1C, which was intentionally destroyed by a Chinese anti-satellite missile in 2007. This event dramatically increased the amount of space debris, with thousands of trackable fragments posing hazards to satellites and human spaceflight. The Fengyun 1C debris cloud has become a focal point in discussions about space sustainability and the need for international regulations to prevent the creation of new debris.

Loading next visibility...
Identifier
30766, 1999-025AUC
Orbit
SSO
Country
Flag of CNCN / PRC
Related business
Manufacturer
Unknown
Mission
Spacecraft
Bus & Motor
Unknown
Mass
Unknown
Launch date (UTC)
1999-05-10 (27 years ago)
Launch vehicle
Unknown
Launch site
Taiyaun Space Center, China (TSC)
Object type
Payload
Rocket body
Debris
Shape & HBR
Unknown shape, 0.1 m
Radar Cross Section
Small (<0.1 m²)

Expand to show TLE details & history
Last TLE update: 6 hours ago

TLE from 6 hours ago
0 FENGYUN 1C DEB
1 30766U 99025AUC 26257.24549863  .00000711  00000-0  41262-3 0  9997
2 30766  98.6835 252.8763 0083016  13.8948  52.8412 14.10131953666791
Epoch: 2026-09-14T05:53Z
TLE epoch observation values (Epoch: 2026-09-14T05:53:31.081Z)
Latitude
66.04959°
Longitude
151.26885°
Altitude
834.32 km
Speed
7.46 km/s
True Right ascension
15h 31m 30s
True Declination
65° 55' 23"
Sunlit
Object was in daylight at epoch
Visualization orbit readout
Latitude
Unknown
Longitude
Unknown
Altitude
Unknown
Speed
Unknown
Apparent Right ascension
Unknown
Apparent Declination
Unknown
Sunlit
N/A
Visualization observer readout
Local Sidereal Time
04:01:23
Azimuth
Unknown
Elevation
Unknown
Doppler factor
Unknown
Orbital elements
Apogee altitude
916.146 km
Perigee altitude
796.035 km
Semi-major axis
7,234.227 km
Eccentricity
0.0083
Inclination
98.6835°
RAAN
252.8763°
Arg. of periapsis
13.8948°
True anomaly
53.60411°
Mean anomaly
52.8412°
Eccentric anomaly
53.22218°
Mean motion
3.5274 °/min
Orbital period
102.06 mins
BSTAR
0.00041262
Loading maneuver chart data...
Computing Atmospheric mass density...
Loading historical data...
Loading historical data...
Loading historical data...
Loading historical data...
Loading historical data...
Loading historical data...
Loading historical data...

Documentation

Showing up to 5 results
|